UAL2415 KRDU-KEWR

Flight info

Callsign UAL2415
Flight time 1h 26m
Altitude 35000
Route OXFRD5 CARML QUART PHLBO4
Aircraft A21N/M-SDE2E3FGHIRWXY/LB1

Departure

Time 2026-05-07 00:16
Airport Raleigh-Durham International Airport (KRDU)

Arrival

Time 2026-05-07 01:42
Airport Newark Liberty International Airport (KEWR)
Time Latitude Longitude Altitude Speed Heading
2026-05-06 23:32 35.87842 -78.79163 414 ft 0 kts 340°
2026-05-06 23:56 35.87835 -78.79159 425 ft 4 kts 341°
2026-05-06 23:57 35.87810 -78.79151 414 ft 4 kts 359°
2026-05-06 23:57 35.87787 -78.79158 412 ft 3 kts 43°
2026-05-06 23:57 35.87785 -78.79160 416 ft 2 kts 45°
2026-05-07 00:01 35.87786 -78.79159 423 ft 1 kts 45°
2026-05-07 00:01 35.87791 -78.79153 419 ft 1 kts 45°
2026-05-07 00:02 35.87801 -78.79140 419 ft 3 kts 45°
2026-05-07 00:02 35.87821 -78.79116 413 ft 4 kts 45°
2026-05-07 00:02 35.87846 -78.79085 423 ft 6 kts 45°
2026-05-07 00:02 35.87874 -78.79050 417 ft 6 kts 45°
2026-05-07 00:03 35.87896 -78.79023 416 ft 2 kts 45°
2026-05-07 00:03 35.87897 -78.79021 416 ft 0 kts 45°
2026-05-07 00:03 35.87898 -78.79021 416 ft 0 kts 45°
2026-05-07 00:03 35.87907 -78.79009 417 ft 3 kts 42°
2026-05-07 00:04 35.87920 -78.78997 417 ft 3 kts 37°
2026-05-07 00:04 35.87952 -78.78982 422 ft 7 kts
2026-05-07 00:04 35.88007 -78.79027 423 ft 11 kts 315°
2026-05-07 00:04 35.88038 -78.79066 424 ft 0 kts 315°
2026-05-07 00:05 35.88041 -78.79069 425 ft 2 kts 315°
2026-05-07 00:05 35.88062 -78.79091 430 ft 5 kts 327°
2026-05-07 00:05 35.88103 -78.79089 419 ft 8 kts 38°
2026-05-07 00:05 35.88163 -78.79013 428 ft 16 kts 45°
2026-05-07 00:06 35.88251 -78.78906 422 ft 18 kts 45°
2026-05-07 00:06 35.88340 -78.78796 421 ft 19 kts 45°
2026-05-07 00:06 35.88432 -78.78680 423 ft 18 kts 45°
2026-05-07 00:06 35.88517 -78.78576 417 ft 17 kts 45°
2026-05-07 00:07 35.88604 -78.78469 424 ft 18 kts 45°
2026-05-07 00:07 35.88684 -78.78371 429 ft 13 kts 45°
2026-05-07 00:07 35.88753 -78.78285 418 ft 16 kts 45°
2026-05-07 00:07 35.88835 -78.78184 417 ft 17 kts 45°
2026-05-07 00:08 35.88921 -78.78077 420 ft 18 kts 45°
2026-05-07 00:08 35.88985 -78.77963 418 ft 16 kts 72°
2026-05-07 00:08 35.89018 -78.77879 414 ft 10 kts 52°
2026-05-07 00:08 35.89065 -78.77819 416 ft 10 kts 45°
2026-05-07 00:09 35.89115 -78.77757 415 ft 11 kts 45°
2026-05-07 00:09 35.89167 -78.77694 421 ft 4 kts 45°
2026-05-07 00:09 35.89187 -78.77670 423 ft 4 kts 41°
2026-05-07 00:09 35.89206 -78.77657 416 ft 3 kts 20°
2026-05-07 00:10 35.89214 -78.77655 419 ft 0 kts
2026-05-07 00:10 35.89224 -78.77654 424 ft 3 kts
2026-05-07 00:11 35.89248 -78.77665 417 ft 5 kts 324°
2026-05-07 00:11 35.89263 -78.77681 424 ft 0 kts 316°
2026-05-07 00:13 35.89270 -78.77689 423 ft 3 kts 316°
2026-05-07 00:13 35.89294 -78.77719 428 ft 6 kts 315°
2026-05-07 00:13 35.89301 -78.77727 431 ft 0 kts 315°
2026-05-07 00:13 35.89301 -78.77728 431 ft 0 kts 315°
2026-05-07 00:14 35.89308 -78.77737 431 ft 3 kts 315°
2026-05-07 00:14 35.89328 -78.77760 432 ft 5 kts 315°
2026-05-07 00:14 35.89346 -78.77789 423 ft 7 kts 302°
2026-05-07 00:14 35.89342 -78.77859 426 ft 11 kts 228°
2026-05-07 00:15 35.89319 -78.77888 420 ft 0 kts 224°
2026-05-07 00:15 35.89290 -78.77923 423 ft 19 kts 224°
2026-05-07 00:15 35.89056 -78.78210 416 ft 85 kts 225°
2026-05-07 00:15 35.88437 -78.78972 432 ft 164 kts 225°
2026-05-07 00:16 35.87545 -78.80059 842 ft 191 kts 226°
2026-05-07 00:16 35.86600 -78.81310 1538 ft 204 kts 229°
2026-05-07 00:16 35.85679 -78.82670 2223 ft 209 kts 232°
2026-05-07 00:16 35.84685 -78.84081 2744 ft 228 kts 227°
2026-05-07 00:17 35.83531 -78.85514 3413 ft 239 kts 226°
2026-05-07 00:17 35.82353 -78.86940 4256 ft 242 kts 226°
2026-05-07 00:17 35.81125 -78.88376 5151 ft 245 kts 226°
2026-05-07 00:17 35.79861 -78.89811 6006 ft 249 kts 226°
2026-05-07 00:18 35.78567 -78.91245 6871 ft 252 kts 226°
2026-05-07 00:18 35.77254 -78.92688 7541 ft 254 kts 226°
2026-05-07 00:18 35.75931 -78.94145 7897 ft 255 kts 226°
2026-05-07 00:18 35.74732 -78.95732 7977 ft 251 kts 243°
2026-05-07 00:19 35.74253 -78.97759 7989 ft 248 kts 270°
2026-05-07 00:19 35.74657 -78.99795 8005 ft 254 kts 296°
2026-05-07 00:19 35.75918 -79.01400 8320 ft 274 kts 324°
2026-05-07 00:19 35.77775 -79.02145 9159 ft 289 kts 345°
2026-05-07 00:20 35.79799 -79.02352 10019 ft 295 kts 350°
2026-05-07 00:20 35.81895 -79.02460 10534 ft 311 kts 351°
2026-05-07 00:20 35.84126 -79.02582 10857 ft 331 kts 351°
2026-05-07 00:20 35.86492 -79.02730 11199 ft 347 kts 351°
2026-05-07 00:21 35.88719 -79.02882 11646 ft 355 kts 351°
2026-05-07 00:21 35.91118 -79.03053 11929 ft 359 kts 351°
2026-05-07 00:21 35.93621 -79.03232 11987 ft 360 kts 351°
2026-05-07 00:21 35.96083 -79.03414 11987 ft 361 kts 351°
2026-05-07 00:22 35.98577 -79.03599 11984 ft 361 kts 351°
2026-05-07 00:22 36.01087 -79.03764 11992 ft 363 kts 354°
2026-05-07 00:22 36.03620 -79.03480 11991 ft 370 kts
2026-05-07 00:22 36.06038 -79.02299 11994 ft 380 kts 27°
2026-05-07 00:23 36.08083 -79.00179 12003 ft 387 kts 42°
2026-05-07 00:23 36.09905 -78.97715 12196 ft 392 kts 45°
2026-05-07 00:23 36.11711 -78.95156 12938 ft 394 kts 45°
2026-05-07 00:23 36.13333 -78.92849 13697 ft 395 kts 45°
2026-05-07 00:24 36.15147 -78.90276 14404 ft 399 kts 45°
2026-05-07 00:24 36.16986 -78.87676 15059 ft 403 kts 44°
2026-05-07 00:24 36.18843 -78.85052 15687 ft 408 kts 44°
2026-05-07 00:24 36.20725 -78.82395 16304 ft 413 kts 44°
2026-05-07 00:25 36.22605 -78.79737 16945 ft 418 kts 44°
2026-05-07 00:25 36.24531 -78.77012 17480 ft 424 kts 43°
2026-05-07 00:25 36.26489 -78.74242 18060 ft 429 kts 43°
2026-05-07 00:25 36.28462 -78.71446 18605 ft 433 kts 43°
2026-05-07 00:26 36.30449 -78.68629 19113 ft 437 kts 43°
2026-05-07 00:26 36.32453 -78.65783 19700 ft 438 kts 43°
2026-05-07 00:26 36.34535 -78.63024 20224 ft 436 kts 36°
2026-05-07 00:26 36.37001 -78.60930 20690 ft 426 kts 18°
2026-05-07 00:27 36.39756 -78.59659 21193 ft 421 kts
2026-05-07 00:27 36.42568 -78.58638 21683 ft 424 kts
2026-05-07 00:27 36.45427 -78.57640 22200 ft 427 kts
2026-05-07 00:27 36.48315 -78.56628 22654 ft 431 kts
2026-05-07 00:28 36.51211 -78.55604 23094 ft 435 kts
2026-05-07 00:28 36.54136 -78.54563 23523 ft 439 kts
2026-05-07 00:28 36.57082 -78.53509 23870 ft 442 kts
2026-05-07 00:28 36.60051 -78.52445 24223 ft 445 kts
2026-05-07 00:29 36.63036 -78.51373 24576 ft 448 kts
2026-05-07 00:29 36.66043 -78.50291 24930 ft 451 kts
2026-05-07 00:30 36.75070 -78.46609 25908 ft 471 kts 20°
2026-05-07 00:30 36.77937 -78.44549 26245 ft 478 kts 26°
2026-05-07 00:30 36.80750 -78.42295 26577 ft 482 kts 27°
2026-05-07 00:30 36.83565 -78.39997 26896 ft 484 kts 27°
2026-05-07 00:31 36.86394 -78.37686 27204 ft 487 kts 27°
2026-05-07 00:31 36.89236 -78.35367 27504 ft 490 kts 27°
2026-05-07 00:31 36.92105 -78.33029 27748 ft 494 kts 27°
2026-05-07 00:31 36.94997 -78.30674 27916 ft 500 kts 27°
2026-05-07 00:32 36.97920 -78.28291 28197 ft 502 kts 27°
2026-05-07 00:32 37.00853 -78.25898 28477 ft 504 kts 27°
2026-05-07 00:32 37.03790 -78.23501 28750 ft 506 kts 27°
2026-05-07 00:32 37.06751 -78.21081 29035 ft 508 kts 27°
2026-05-07 00:33 37.09714 -78.18657 29400 ft 508 kts 27°
2026-05-07 00:33 37.12672 -78.16235 29823 ft 508 kts 26°
2026-05-07 00:33 37.18660 -78.11331 30086 ft 518 kts 26°
2026-05-07 00:34 37.21670 -78.08859 30459 ft 516 kts 26°
2026-05-07 00:34 37.24629 -78.06424 30859 ft 513 kts 25°
2026-05-07 00:34 37.27613 -78.03969 31243 ft 511 kts 25°
2026-05-07 00:34 37.30587 -78.01520 31625 ft 509 kts 24°
2026-05-07 00:35 37.33545 -77.99066 31995 ft 510 kts 25°
2026-05-07 00:35 37.36347 -77.96257 32302 ft 524 kts 35°
2026-05-07 00:35 37.38825 -77.92829 32601 ft 532 kts 42°
2026-05-07 00:35 37.41156 -77.89211 33006 ft 531 kts 43°
2026-05-07 00:36 37.43424 -77.85627 33301 ft 530 kts 43°
2026-05-07 00:36 37.45726 -77.81987 33563 ft 531 kts 42°
2026-05-07 00:36 37.48025 -77.78356 33839 ft 531 kts 42°
2026-05-07 00:36 37.50336 -77.74733 34080 ft 528 kts 39°
2026-05-07 00:37 37.52855 -77.71456 34291 ft 512 kts 28°
2026-05-07 00:37 37.55673 -77.68814 34558 ft 498 kts 21°
2026-05-07 00:37 37.58575 -77.66426 34726 ft 497 kts 19°
2026-05-07 00:37 37.61493 -77.64084 34883 ft 498 kts 19°
2026-05-07 00:38 37.67331 -77.59388 34915 ft 496 kts 19°
2026-05-07 00:38 37.73102 -77.54722 34915 ft 495 kts 20°
2026-05-07 00:39 37.78902 -77.50016 34915 ft 495 kts 20°
2026-05-07 00:39 37.84695 -77.45305 34913 ft 495 kts 20°
2026-05-07 00:40 37.90483 -77.40589 34908 ft 495 kts 20°
2026-05-07 00:40 37.96269 -77.35864 34906 ft 495 kts 20°
2026-05-07 00:41 38.02077 -77.31119 34892 ft 497 kts 20°
2026-05-07 00:41 38.07899 -77.26355 34882 ft 498 kts 20°
2026-05-07 00:42 38.13694 -77.21602 34868 ft 498 kts 20°
2026-05-07 00:42 38.19503 -77.16827 34915 ft 497 kts 20°
2026-05-07 00:43 38.25320 -77.12042 34878 ft 499 kts 20°
2026-05-07 00:43 38.31066 -77.07099 34877 ft 506 kts 25°
2026-05-07 00:44 38.36592 -77.01777 34876 ft 508 kts 25°
2026-05-07 00:44 38.42179 -76.96369 34882 ft 508 kts 25°
2026-05-07 00:45 38.47829 -76.90911 34870 ft 510 kts 25°
2026-05-07 00:45 38.53477 -76.85446 34865 ft 510 kts 25°
2026-05-07 00:46 38.59097 -76.79998 34875 ft 508 kts 25°
2026-05-07 00:46 38.61964 -76.77216 34765 ft 508 kts 25°
2026-05-07 00:46 38.64580 -76.74677 34546 ft 509 kts 25°
2026-05-07 00:47 38.67268 -76.72066 34330 ft 510 kts 25°
2026-05-07 00:47 38.69627 -76.69773 34138 ft 511 kts 26°
2026-05-07 00:47 38.72461 -76.67014 33912 ft 512 kts 26°
2026-05-07 00:47 38.75305 -76.64243 33657 ft 514 kts 26°
2026-05-07 00:48 38.78152 -76.61465 33394 ft 515 kts 26°
2026-05-07 00:48 38.80997 -76.58684 33174 ft 516 kts 26°
2026-05-07 00:48 38.83863 -76.55881 32911 ft 517 kts 26°
2026-05-07 00:48 38.86731 -76.53074 32660 ft 519 kts 26°
2026-05-07 00:49 38.89604 -76.50258 32399 ft 519 kts 26°
2026-05-07 00:49 38.92476 -76.47440 32150 ft 518 kts 27°
2026-05-07 00:49 38.95338 -76.44626 31899 ft 517 kts 27°
2026-05-07 00:49 38.98195 -76.41818 31641 ft 517 kts 27°
2026-05-07 00:50 39.01051 -76.39008 31450 ft 518 kts 26°
2026-05-07 00:50 39.03875 -76.36086 31200 ft 525 kts 30°
2026-05-07 00:50 39.06615 -76.32940 30976 ft 529 kts 32°
2026-05-07 00:50 39.09330 -76.29753 30744 ft 528 kts 32°
2026-05-07 00:51 39.12042 -76.26563 30498 ft 526 kts 32°
2026-05-07 00:51 39.14738 -76.23398 30194 ft 523 kts 32°
2026-05-07 00:51 39.17416 -76.20255 29463 ft 520 kts 32°
2026-05-07 00:51 39.20094 -76.17120 28681 ft 519 kts 32°
2026-05-07 00:52 39.22757 -76.14000 27928 ft 517 kts 32°
2026-05-07 00:52 39.25385 -76.10918 27271 ft 513 kts 33°
2026-05-07 00:52 39.28001 -76.07841 26784 ft 505 kts 33°
2026-05-07 00:52 39.30588 -76.04799 26200 ft 500 kts 33°
2026-05-07 00:53 39.33132 -76.01804 25761 ft 492 kts 33°
2026-05-07 00:53 39.35637 -75.98851 25343 ft 483 kts 33°
2026-05-07 00:53 39.38069 -75.95983 24922 ft 476 kts 33°
2026-05-07 00:53 39.40506 -75.93109 24558 ft 472 kts 33°
2026-05-07 00:54 39.42857 -75.90340 24130 ft 471 kts 33°
2026-05-07 00:54 39.45252 -75.87514 23722 ft 470 kts 33°
2026-05-07 00:54 39.47659 -75.84668 23281 ft 467 kts 33°
2026-05-07 00:54 39.50041 -75.81848 22849 ft 463 kts 34°
2026-05-07 00:55 39.52403 -75.79048 22452 ft 458 kts 34°
2026-05-07 00:55 39.54750 -75.76262 22049 ft 454 kts 34°
2026-05-07 00:55 39.57065 -75.73512 21671 ft 449 kts 34°
2026-05-07 00:55 39.59328 -75.70823 21320 ft 446 kts 34°
2026-05-07 00:56 39.61603 -75.68117 20918 ft 443 kts 35°
2026-05-07 00:56 39.63866 -75.65423 20528 ft 440 kts 35°
2026-05-07 00:56 39.66111 -75.62747 20154 ft 436 kts 36°
2026-05-07 00:56 39.68323 -75.60106 19895 ft 433 kts 36°
2026-05-07 00:57 39.70531 -75.57454 19362 ft 431 kts 36°
2026-05-07 00:57 39.72722 -75.54816 18890 ft 425 kts 37°
2026-05-07 00:57 39.74864 -75.52233 18520 ft 419 kts 37°
2026-05-07 00:57 39.76995 -75.49663 18185 ft 417 kts 37°
2026-05-07 00:58 39.79109 -75.47114 17729 ft 414 kts 37°
2026-05-07 00:58 39.81227 -75.44556 17287 ft 412 kts 38°
2026-05-07 00:58 39.83317 -75.42031 16862 ft 409 kts 37°
2026-05-07 00:58 39.85402 -75.39508 16462 ft 407 kts 38°
2026-05-07 00:59 39.89518 -75.34522 15639 ft 402 kts 38°
2026-05-07 00:59 39.91559 -75.32048 15234 ft 400 kts 38°
2026-05-07 00:59 39.93550 -75.29631 14834 ft 397 kts 38°
2026-05-07 01:00 39.95513 -75.27247 14449 ft 396 kts 39°
2026-05-07 01:00 39.97520 -75.24803 14063 ft 395 kts 39°
2026-05-07 01:00 39.99546 -75.22337 13645 ft 391 kts 39°
2026-05-07 01:00 40.01417 -75.20058 13235 ft 388 kts 39°
2026-05-07 01:01 40.03300 -75.17765 12869 ft 386 kts 39°
2026-05-07 01:01 40.05253 -75.15382 12479 ft 383 kts 39°
2026-05-07 01:01 40.07175 -75.13035 12095 ft 380 kts 39°
2026-05-07 01:01 40.09088 -75.10698 11729 ft 378 kts 39°
2026-05-07 01:02 40.10997 -75.08363 11347 ft 375 kts 39°
2026-05-07 01:02 40.12900 -75.06034 11082 ft 373 kts 39°
2026-05-07 01:02 40.14152 -75.04500 10800 ft 370 kts 39°
2026-05-07 01:02 40.15238 -75.03168 10562 ft 367 kts 39°
2026-05-07 01:03 40.17069 -75.00919 10335 ft 354 kts 39°
2026-05-07 01:03 40.18836 -74.98746 10042 ft 343 kts 38°
2026-05-07 01:03 40.19979 -74.97340 9872 ft 336 kts 38°
2026-05-07 01:03 40.21667 -74.95267 9451 ft 331 kts 38°
2026-05-07 01:04 40.23332 -74.93223 9017 ft 327 kts 38°
2026-05-07 01:04 40.24975 -74.91190 8710 ft 322 kts 40°
2026-05-07 01:04 40.26539 -74.89087 8425 ft 322 kts 43°
2026-05-07 01:04 40.28054 -74.86973 8133 ft 320 kts 43°
2026-05-07 01:05 40.29527 -74.84903 7959 ft 318 kts 43°
2026-05-07 01:05 40.31015 -74.82808 7778 ft 308 kts 43°
2026-05-07 01:05 40.32457 -74.80777 7652 ft 304 kts 43°
2026-05-07 01:05 40.33904 -74.78745 7539 ft 304 kts 43°
2026-05-07 01:06 40.35354 -74.76706 7392 ft 308 kts 43°
2026-05-07 01:06 40.36817 -74.74649 7248 ft 308 kts 43°
2026-05-07 01:06 40.38273 -74.72599 7097 ft 307 kts 43°
2026-05-07 01:06 40.39712 -74.70571 6974 ft 306 kts 43°
2026-05-07 01:07 40.41172 -74.68539 6834 ft 304 kts 39°
2026-05-07 01:07 40.42866 -74.66979 6675 ft 291 kts 16°
2026-05-07 01:07 40.44758 -74.66127 6275 ft 285 kts
2026-05-07 01:07 40.46655 -74.65420 6029 ft 282 kts
2026-05-07 01:08 40.48553 -74.64743 5998 ft 282 kts
2026-05-07 01:08 40.50450 -74.64070 5994 ft 282 kts
2026-05-07 01:08 40.52323 -74.63410 5994 ft 282 kts
2026-05-07 01:08 40.54184 -74.62749 5999 ft 283 kts
2026-05-07 01:09 40.56080 -74.62073 5995 ft 284 kts
2026-05-07 01:09 40.57999 -74.61383 5994 ft 283 kts
2026-05-07 01:09 40.59883 -74.60703 5994 ft 279 kts
2026-05-07 01:09 40.61758 -74.60030 5989 ft 279 kts
2026-05-07 01:10 40.63639 -74.59353 5992 ft 279 kts
2026-05-07 01:10 40.65512 -74.58675 5995 ft 279 kts
2026-05-07 01:10 40.67386 -74.58001 5999 ft 278 kts
2026-05-07 01:10 40.69254 -74.57321 5996 ft 278 kts
2026-05-07 01:11 40.71115 -74.56645 5993 ft 278 kts
2026-05-07 01:11 40.72956 -74.55979 5994 ft 278 kts
2026-05-07 01:11 40.74827 -74.55316 5998 ft 278 kts
2026-05-07 01:11 40.76701 -74.54678 6002 ft 279 kts
2026-05-07 01:12 40.78580 -74.54023 6014 ft 279 kts
2026-05-07 01:12 40.80455 -74.53365 6013 ft 280 kts
2026-05-07 01:12 40.82339 -74.52702 6016 ft 280 kts
2026-05-07 01:12 40.84222 -74.52036 6011 ft 279 kts
2026-05-07 01:13 40.86103 -74.51368 6015 ft 279 kts
2026-05-07 01:13 40.87978 -74.50695 6013 ft 279 kts
2026-05-07 01:13 40.89828 -74.49881 5958 ft 285 kts 21°
2026-05-07 01:13 40.91392 -74.48228 5596 ft 293 kts 50°
2026-05-07 01:14 40.92297 -74.45861 5432 ft 284 kts 71°
2026-05-07 01:14 40.92822 -74.43384 5231 ft 275 kts 76°
2026-05-07 01:14 40.93270 -74.40984 4973 ft 270 kts 76°
2026-05-07 01:14 40.93695 -74.38581 4647 ft 267 kts 77°
2026-05-07 01:15 40.94077 -74.36201 4333 ft 263 kts 77°
2026-05-07 01:15 40.94444 -74.33855 4058 ft 260 kts 78°
2026-05-07 01:15 40.94813 -74.31500 4008 ft 262 kts 78°
2026-05-07 01:15 40.95185 -74.29168 4009 ft 263 kts 78°
2026-05-07 01:16 40.95527 -74.27048 4008 ft 262 kts 77°
2026-05-07 01:16 40.95905 -74.24678 4003 ft 262 kts 77°
2026-05-07 01:16 40.96256 -74.22505 4005 ft 262 kts 78°
2026-05-07 01:16 40.96357 -74.20118 4010 ft 260 kts 99°
2026-05-07 01:17 40.95996 -74.17775 3999 ft 259 kts 106°
2026-05-07 01:17 40.95538 -74.15473 3998 ft 254 kts 107°
2026-05-07 01:17 40.95087 -74.13241 4002 ft 250 kts 107°
2026-05-07 01:17 40.94647 -74.11023 4000 ft 249 kts 108°
2026-05-07 01:18 40.93944 -74.08976 3914 ft 242 kts 133°
2026-05-07 01:18 40.92800 -74.07444 3542 ft 237 kts 145°
2026-05-07 01:18 40.91515 -74.06070 3177 ft 234 kts 147°
2026-05-07 01:18 40.90232 -74.04758 2977 ft 234 kts 147°
2026-05-07 01:19 40.88940 -74.03448 2990 ft 234 kts 147°
2026-05-07 01:19 40.87644 -74.02136 2988 ft 234 kts 147°
2026-05-07 01:19 40.86366 -74.00852 2973 ft 234 kts 148°
2026-05-07 01:19 40.84954 -73.99894 2977 ft 221 kts 177°
2026-05-07 01:20 40.83509 -74.00057 2981 ft 203 kts 211°
2026-05-07 01:20 40.82422 -74.01166 2999 ft 198 kts 232°
2026-05-07 01:20 40.81563 -74.02579 2987 ft 200 kts 237°
2026-05-07 01:20 40.80727 -74.04059 2987 ft 201 kts 237°
2026-05-07 01:21 40.79906 -74.05528 2992 ft 201 kts 237°
2026-05-07 01:21 40.79078 -74.07007 3001 ft 200 kts 237°
2026-05-07 01:21 40.78225 -74.08477 3003 ft 202 kts 233°
2026-05-07 01:21 40.77530 -74.10046 2997 ft 197 kts 255°
2026-05-07 01:22 40.76914 -74.11648 2862 ft 200 kts 229°
2026-05-07 01:22 40.75728 -74.12531 2719 ft 192 kts 206°
2026-05-07 01:22 40.74506 -74.13129 2497 ft 181 kts 209°
2026-05-07 01:22 40.73415 -74.13816 2599 ft 176 kts 213°
2026-05-07 01:23 40.72270 -74.14489 3225 ft 185 kts 208°
2026-05-07 01:23 40.70995 -74.15121 3757 ft 205 kts 207°
2026-05-07 01:23 40.69636 -74.15789 3960 ft 209 kts 206°
2026-05-07 01:23 40.68327 -74.16429 3995 ft 208 kts 206°
2026-05-07 01:24 40.66963 -74.17094 3997 ft 209 kts 206°
2026-05-07 01:24 40.65596 -74.17758 3995 ft 209 kts 206°
2026-05-07 01:24 40.64335 -74.18616 3990 ft 201 kts 229°
2026-05-07 01:24 40.63669 -74.20164 4009 ft 194 kts 258°
2026-05-07 01:25 40.63509 -74.21927 4010 ft 195 kts 266°
2026-05-07 01:25 40.63466 -74.23699 4006 ft 196 kts 268°
2026-05-07 01:25 40.63676 -74.25463 4009 ft 198 kts 289°
2026-05-07 01:25 40.64323 -74.27088 4007 ft 200 kts 296°
2026-05-07 01:26 40.65037 -74.28610 4004 ft 201 kts 297°
2026-05-07 01:26 40.65790 -74.30177 4004 ft 202 kts 297°
2026-05-07 01:26 40.66540 -74.31716 4005 ft 203 kts 297°
2026-05-07 01:26 40.67307 -74.33279 4005 ft 203 kts 297°
2026-05-07 01:27 40.68074 -74.34834 4007 ft 203 kts 297°
2026-05-07 01:27 40.68841 -74.36390 4006 ft 203 kts 298°
2026-05-07 01:27 40.69598 -74.37950 4003 ft 202 kts 297°
2026-05-07 01:27 40.70359 -74.39522 4002 ft 202 kts 297°
2026-05-07 01:28 40.71114 -74.41087 4015 ft 202 kts 298°
2026-05-07 01:28 40.72116 -74.42407 3994 ft 211 kts 325°
2026-05-07 01:28 40.73466 -74.43130 4015 ft 218 kts 336°
2026-05-07 01:28 40.74927 -74.43696 4009 ft 219 kts 338°
2026-05-07 01:29 40.76398 -74.44242 3999 ft 219 kts 337°
2026-05-07 01:29 40.77861 -74.44777 4003 ft 218 kts 338°
2026-05-07 01:29 40.79349 -74.45232 4007 ft 223 kts 350°
2026-05-07 01:29 40.80903 -74.44907 4015 ft 232 kts 13°
2026-05-07 01:30 40.82404 -74.44135 4020 ft 235 kts 17°
2026-05-07 01:30 40.83910 -74.43269 4007 ft 236 kts 18°
2026-05-07 01:30 40.85417 -74.42399 4011 ft 236 kts 18°
2026-05-07 01:30 40.86927 -74.41533 4012 ft 237 kts 18°
2026-05-07 01:31 40.88390 -74.40695 4015 ft 237 kts 18°
2026-05-07 01:31 40.89903 -74.39831 4004 ft 237 kts 17°
2026-05-07 01:31 40.91413 -74.38966 4001 ft 236 kts 18°
2026-05-07 01:31 40.92865 -74.37989 4000 ft 238 kts 31°
2026-05-07 01:32 40.93963 -74.36344 4004 ft 242 kts 59°
2026-05-07 01:32 40.94673 -74.34295 3991 ft 247 kts 66°
2026-05-07 01:32 40.95307 -74.32145 4009 ft 251 kts 68°
2026-05-07 01:32 40.95938 -74.29985 4006 ft 252 kts 67°
2026-05-07 01:33 40.96563 -74.27828 4005 ft 251 kts 68°
2026-05-07 01:33 40.97001 -74.25623 3978 ft 250 kts 89°
2026-05-07 01:33 40.96819 -74.23350 3663 ft 248 kts 104°
2026-05-07 01:33 40.96409 -74.21175 3375 ft 245 kts 107°
2026-05-07 01:34 40.95969 -74.19014 3055 ft 241 kts 108°
2026-05-07 01:34 40.95518 -74.16864 2977 ft 242 kts 107°
2026-05-07 01:34 40.95051 -74.14712 3004 ft 242 kts 107°
2026-05-07 01:34 40.94584 -74.12572 3003 ft 242 kts 107°
2026-05-07 01:35 40.94116 -74.10429 3005 ft 243 kts 107°
2026-05-07 01:35 40.93643 -74.08285 3003 ft 243 kts 108°
2026-05-07 01:35 40.93181 -74.06158 2989 ft 243 kts 108°
2026-05-07 01:35 40.92711 -74.04008 2986 ft 242 kts 107°
2026-05-07 01:36 40.91977 -74.02030 2974 ft 236 kts 138°
2026-05-07 01:36 40.90603 -74.01062 2983 ft 220 kts 181°
2026-05-07 01:36 40.89221 -74.01485 2985 ft 203 kts 223°
2026-05-07 01:36 40.88271 -74.02823 2989 ft 200 kts 230°
2026-05-07 01:37 40.87143 -74.03913 2979 ft 203 kts 212°
2026-05-07 01:37 40.85868 -74.04672 2814 ft 195 kts 208°
2026-05-07 01:37 40.84646 -74.05314 2611 ft 182 kts 210°
2026-05-07 01:37 40.83669 -74.06233 2356 ft 167 kts 225°
2026-05-07 01:38 40.82796 -74.07153 2163 ft 157 kts 224°
2026-05-07 01:38 40.81947 -74.07954 1993 ft 143 kts 220°
2026-05-07 01:38 40.81176 -74.08709 1695 ft 134 kts 222°
2026-05-07 01:38 40.80368 -74.09340 1454 ft 135 kts 214°
2026-05-07 01:39 40.79546 -74.09890 1512 ft 130 kts 214°
2026-05-07 01:39 40.78739 -74.10404 1516 ft 130 kts 213°
2026-05-07 01:39 40.77927 -74.10926 1508 ft 130 kts 215°
2026-05-07 01:39 40.77111 -74.11456 1508 ft 132 kts 214°
2026-05-07 01:40 40.76288 -74.11989 1441 ft 131 kts 212°
2026-05-07 01:40 40.75473 -74.12510 1267 ft 129 kts 213°
2026-05-07 01:40 40.74662 -74.13028 1090 ft 130 kts 211°
2026-05-07 01:40 40.73850 -74.13532 909 ft 130 kts 208°
2026-05-07 01:41 40.73036 -74.14037 757 ft 129 kts 211°
2026-05-07 01:41 40.72231 -74.14526 618 ft 126 kts 214°
2026-05-07 01:41 40.71435 -74.15025 473 ft 129 kts 215°
2026-05-07 01:41 40.70633 -74.15560 299 ft 128 kts 215°
2026-05-07 01:42 40.69850 -74.16088 93 ft 129 kts 216°
2026-05-07 01:42 40.69090 -74.16582 27 ft 105 kts 206°
2026-05-07 01:42 40.68673 -74.16845 23 ft 40 kts 207°
2026-05-07 01:42 40.68529 -74.17003 27 ft 19 kts 236°
2026-05-07 01:43 40.68485 -74.17094 27 ft 9 kts 237°
2026-05-07 01:43 40.68450 -74.17162 28 ft 9 kts 235°
2026-05-07 01:43 40.68439 -74.17220 28 ft 0 kts 284°
2026-05-07 01:44 40.68442 -74.17231 28 ft 2 kts 286°
2026-05-07 01:44 40.68451 -74.17262 28 ft 5 kts 294°
2026-05-07 01:44 40.68469 -74.17314 27 ft 8 kts 295°
2026-05-07 01:45 40.68494 -74.17383 27 ft 9 kts 296°
2026-05-07 01:45 40.68527 -74.17454 28 ft 7 kts 329°
2026-05-07 01:45 40.68568 -74.17489 28 ft 7 kts 307°
2026-05-07 01:45 40.68598 -74.17555 28 ft 10 kts 295°
2026-05-07 01:46 40.68631 -74.17648 31 ft 12 kts 295°
2026-05-07 01:46 40.68669 -74.17753 25 ft 13 kts 296°
2026-05-07 01:46 40.68702 -74.17862 27 ft 10 kts 272°
2026-05-07 01:46 40.68692 -74.17890 28 ft 2 kts 233°
2026-05-07 01:47 40.68680 -74.17910 27 ft 4 kts 233°
2026-05-07 01:47 40.68676 -74.17918 26 ft 0 kts 233°